TimeCDT,TemperatureF,Dew PointF,Humidity,Sea Level PressureIn,VisibilityMPH,Wind Direction,Wind SpeedMPH,Gust SpeedMPH,PrecipitationIn,Events,Conditions,WindDirDegrees,DateUTC
12:56 AM,54.0,51.1,90,29.93,10.0,WNW,3.5,-,N/A,,Clear,300,2013-05-07 05:56:00
1:56 AM,55.9,51.1,84,29.92,10.0,Calm,Calm,-,N/A,,Scattered Clouds,0,2013-05-07 06:56:00
2:56 AM,54.0,51.1,90,29.91,10.0,Calm,Calm,-,N/A,,Clear,0,2013-05-07 07:56:00
3:32 AM,55.4,51.8,88,29.95,10.0,WNW,4.6,-,N/A,,Mostly Cloudy,300,2013-05-07 08:32:00
3:41 AM,55.4,51.8,88,29.95,10.0,WNW,4.6,-,N/A,,Scattered Clouds,300,2013-05-07 08:41:00
3:56 AM,55.0,51.1,86,29.92,10.0,NW,5.8,-,N/A,,Partly Cloudy,310,2013-05-07 08:56:00
4:56 AM,53.1,51.1,93,29.93,10.0,WNW,3.5,-,N/A,,Clear,290,2013-05-07 09:56:00
5:56 AM,52.0,50.0,93,29.94,10.0,WNW,3.5,-,N/A,,Clear,300,2013-05-07 10:56:00
6:56 AM,55.9,52.0,87,29.96,10.0,WNW,4.6,-,N/A,,Clear,300,2013-05-07 11:56:00
7:56 AM,60.1,54.0,80,29.99,10.0,Variable,4.6,-,N/A,,Clear,0,2013-05-07 12:56:00
8:56 AM,64.9,55.9,73,30.00,10.0,NW,4.6,-,N/A,,Partly Cloudy,320,2013-05-07 13:56:00
9:56 AM,68.0,55.0,63,30.00,10.0,NNW,9.2,-,N/A,,Clear,340,2013-05-07 14:56:00
10:56 AM,71.1,55.0,57,30.00,10.0,Variable,6.9,-,N/A,,Mostly Cloudy,0,2013-05-07 15:56:00
11:56 AM,71.1,55.0,57,29.98,10.0,WNW,8.1,17.3,N/A,,Mostly Cloudy,300,2013-05-07 16:56:00
12:56 PM,72.0,54.0,53,29.98,10.0,NNW,8.1,-,N/A,,Overcast,330,2013-05-07 17:56:00
1:56 PM,73.9,54.0,50,29.96,10.0,WNW,8.1,18.4,N/A,,Mostly Cloudy,290,2013-05-07 18:56:00
2:56 PM,75.9,53.1,45,29.94,10.0,NNW,9.2,17.3,N/A,,Scattered Clouds,330,2013-05-07 19:56:00
3:56 PM,73.0,53.1,49,29.94,10.0,NW,8.1,-,N/A,,Mostly Cloudy,320,2013-05-07 20:56:00
5:56 PM,72.0,55.0,55,29.95,10.0,WNW,3.5,-,N/A,,Overcast,300,2013-05-07 22:56:00
6:56 PM,72.0,55.0,55,29.95,10.0,WNW,4.6,-,N/A,,Clear,290,2013-05-07 23:56:00
7:56 PM,68.0,55.9,65,29.97,10.0,Calm,Calm,-,N/A,,Clear,0,2013-05-08 00:56:00
8:56 PM,66.0,55.9,70,29.99,10.0,Calm,Calm,-,N/A,,Clear,0,2013-05-08 01:56:00
9:56 PM,64.0,55.9,75,30.00,10.0,Calm,Calm,-,N/A,,Clear,0,2013-05-08 02:56:00
10:56 PM,63.0,55.9,78,30.01,10.0,Calm,Calm,-,N/A,,Clear,0,2013-05-08 03:56:00
11:56 PM,62.1,57.0,84,30.01,10.0,Calm,Calm,-,N/A,,Clear,0,2013-05-08 04:56:00